<?xml version="1.0" encoding="UTF-8" standalone="no" ?>
<gpx xmlns="http://www.topografix.com/GPX/1/1" xmlns:xsi="http://www.w3.org/2001/XMLSchema-instance" xsi:schemaLocation="http://www.topografix.com/GPX/1/1 http://www.topografix.com/GPX/1/1/gpx.xsd" version="1.1" creator="VisuGPX - https://www.visugpx.com">
  <metadata>
    <name>Bruniquel la cascade de l\'Audoulou</name>
    <desc><![CDATA[Une superbe boucle au départ de Bruniquel ]]></desc>
  </metadata>
  <trk>
    <name><![CDATA[2 Bruniquel la cascade de lAudoulou 34kms]]></name>
    <trkseg>
      <trkpt lat="44.05499" lon="1.66499">
        <ele>152</ele>
        <time>2012-09-22T05:27:33Z</time>
      </trkpt>
      <trkpt lat="44.05516" lon="1.66449">
        <ele>152</ele>
        <time>2012-09-22T05:27:33Z</time>
      </trkpt>
      <trkpt lat="44.05405" lon="1.6619">
        <ele>133</ele>
        <time>2012-09-22T05:27:33Z</time>
      </trkpt>
      <trkpt lat="44.05392" lon="1.6621">
        <ele>132</ele>
        <time>2012-09-22T05:27:33Z</time>
      </trkpt>
      <trkpt lat="44.05362" lon="1.66355">
        <ele>134</ele>
        <time>2012-09-22T05:27:33Z</time>
      </trkpt>
      <trkpt lat="44.05394" lon="1.66517">
        <ele>131</ele>
        <time>2012-09-22T05:27:33Z</time>
      </trkpt>
      <trkpt lat="44.05407" lon="1.66595">
        <ele>137</ele>
        <time>2012-09-22T05:27:33Z</time>
      </trkpt>
      <trkpt lat="44.05406" lon="1.66726">
        <ele>128</ele>
        <time>2012-09-22T05:27:33Z</time>
      </trkpt>
      <trkpt lat="44.05481" lon="1.66848">
        <ele>111</ele>
        <time>2012-09-22T05:27:33Z</time>
      </trkpt>
      <trkpt lat="44.05544" lon="1.66938">
        <ele>101</ele>
        <time>2012-09-22T05:27:33Z</time>
      </trkpt>
      <trkpt lat="44.0556" lon="1.66973">
        <ele>100</ele>
        <time>2012-09-22T05:27:33Z</time>
      </trkpt>
      <trkpt lat="44.05564" lon="1.66992">
        <ele>100</ele>
        <time>2012-09-22T05:27:33Z</time>
      </trkpt>
      <trkpt lat="44.05575" lon="1.67018">
        <ele>100</ele>
        <time>2012-09-22T05:27:33Z</time>
      </trkpt>
      <trkpt lat="44.05588" lon="1.67037">
        <ele>101</ele>
        <time>2012-09-22T05:27:33Z</time>
      </trkpt>
      <trkpt lat="44.05565" lon="1.67029">
        <ele>101</ele>
        <time>2012-09-22T05:27:33Z</time>
      </trkpt>
      <trkpt lat="44.05549" lon="1.67005">
        <ele>100</ele>
        <time>2012-09-22T05:27:33Z</time>
      </trkpt>
      <trkpt lat="44.05508" lon="1.67001">
        <ele>101</ele>
        <time>2012-09-22T05:27:33Z</time>
      </trkpt>
      <trkpt lat="44.05468" lon="1.67013">
        <ele>100</ele>
        <time>2012-09-22T05:27:33Z</time>
      </trkpt>
      <trkpt lat="44.0538" lon="1.6702">
        <ele>100</ele>
        <time>2012-09-22T05:27:33Z</time>
      </trkpt>
      <trkpt lat="44.05351" lon="1.67069">
        <ele>100</ele>
        <time>2012-09-22T05:27:33Z</time>
      </trkpt>
      <trkpt lat="44.05324" lon="1.67081">
        <ele>100</ele>
        <time>2012-09-22T05:27:33Z</time>
      </trkpt>
      <trkpt lat="44.05282" lon="1.67125">
        <ele>101</ele>
        <time>2012-09-22T05:27:33Z</time>
      </trkpt>
      <trkpt lat="44.05221" lon="1.67139">
        <ele>100</ele>
        <time>2012-09-22T05:27:33Z</time>
      </trkpt>
      <trkpt lat="44.05167" lon="1.67157">
        <ele>99</ele>
        <time>2012-09-22T05:27:33Z</time>
      </trkpt>
      <trkpt lat="44.05174" lon="1.67243">
        <ele>107</ele>
        <time>2012-09-22T05:27:33Z</time>
      </trkpt>
      <trkpt lat="44.0515" lon="1.67245">
        <ele>107</ele>
        <time>2012-09-22T05:27:33Z</time>
      </trkpt>
      <trkpt lat="44.05119" lon="1.67225">
        <ele>105</ele>
        <time>2012-09-22T05:27:33Z</time>
      </trkpt>
      <trkpt lat="44.05095" lon="1.67175">
        <ele>106</ele>
        <time>2012-09-22T05:27:33Z</time>
      </trkpt>
      <trkpt lat="44.05074" lon="1.67143">
        <ele>110</ele>
        <time>2012-09-22T05:27:33Z</time>
      </trkpt>
      <trkpt lat="44.05043" lon="1.6717">
        <ele>113</ele>
        <time>2012-09-22T05:27:33Z</time>
      </trkpt>
      <trkpt lat="44.04981" lon="1.67264">
        <ele>115</ele>
        <time>2012-09-22T05:27:33Z</time>
      </trkpt>
      <trkpt lat="44.04944" lon="1.67328">
        <ele>113</ele>
        <time>2012-09-22T05:27:33Z</time>
      </trkpt>
      <trkpt lat="44.04902" lon="1.67361">
        <ele>113</ele>
        <time>2012-09-22T05:27:33Z</time>
      </trkpt>
      <trkpt lat="44.04842" lon="1.67378">
        <ele>114</ele>
        <time>2012-09-22T05:27:33Z</time>
      </trkpt>
      <trkpt lat="44.04779" lon="1.67344">
        <ele>115</ele>
        <time>2012-09-22T05:27:33Z</time>
      </trkpt>
      <trkpt lat="44.0472" lon="1.6725">
        <ele>114</ele>
        <time>2012-09-22T05:27:33Z</time>
      </trkpt>
      <trkpt lat="44.04604" lon="1.67052">
        <ele>112</ele>
        <time>2012-09-22T05:27:33Z</time>
      </trkpt>
      <trkpt lat="44.04517" lon="1.66947">
        <ele>111</ele>
        <time>2012-09-22T05:27:33Z</time>
      </trkpt>
      <trkpt lat="44.04479" lon="1.66911">
        <ele>111</ele>
        <time>2012-09-22T05:27:33Z</time>
      </trkpt>
      <trkpt lat="44.04449" lon="1.66881">
        <ele>111</ele>
        <time>2012-09-22T05:27:33Z</time>
      </trkpt>
      <trkpt lat="44.04431" lon="1.66822">
        <ele>113</ele>
        <time>2012-09-22T05:27:33Z</time>
      </trkpt>
      <trkpt lat="44.04369" lon="1.66788">
        <ele>114</ele>
        <time>2012-09-22T05:27:33Z</time>
      </trkpt>
      <trkpt lat="44.04314" lon="1.66804">
        <ele>112</ele>
        <time>2012-09-22T05:27:33Z</time>
      </trkpt>
      <trkpt lat="44.04271" lon="1.66788">
        <ele>112</ele>
        <time>2012-09-22T05:27:33Z</time>
      </trkpt>
      <trkpt lat="44.04218" lon="1.66784">
        <ele>114</ele>
        <time>2012-09-22T05:27:33Z</time>
      </trkpt>
      <trkpt lat="44.04176" lon="1.66796">
        <ele>117</ele>
        <time>2012-09-22T05:27:33Z</time>
      </trkpt>
      <trkpt lat="44.04132" lon="1.66887">
        <ele>115</ele>
        <time>2012-09-22T05:27:33Z</time>
      </trkpt>
      <trkpt lat="44.0409" lon="1.66927">
        <ele>118</ele>
        <time>2012-09-22T05:27:33Z</time>
      </trkpt>
      <trkpt lat="44.04038" lon="1.66949">
        <ele>123</ele>
        <time>2012-09-22T05:27:33Z</time>
      </trkpt>
      <trkpt lat="44.03975" lon="1.66944">
        <ele>124</ele>
        <time>2012-09-22T05:27:33Z</time>
      </trkpt>
      <trkpt lat="44.03911" lon="1.6686">
        <ele>123</ele>
        <time>2012-09-22T05:27:33Z</time>
      </trkpt>
      <trkpt lat="44.03888" lon="1.66808">
        <ele>134</ele>
        <time>2012-09-22T05:27:33Z</time>
      </trkpt>
      <trkpt lat="44.03822" lon="1.6674">
        <ele>146</ele>
        <time>2012-09-22T05:27:33Z</time>
      </trkpt>
      <trkpt lat="44.03789" lon="1.66695">
        <ele>151</ele>
        <time>2012-09-22T05:27:33Z</time>
      </trkpt>
      <trkpt lat="44.03783" lon="1.66595">
        <ele>155</ele>
        <time>2012-09-22T05:27:33Z</time>
      </trkpt>
      <trkpt lat="44.03787" lon="1.66491">
        <ele>164</ele>
        <time>2012-09-22T05:27:33Z</time>
      </trkpt>
      <trkpt lat="44.03769" lon="1.66451">
        <ele>168</ele>
        <time>2012-09-22T05:27:33Z</time>
      </trkpt>
      <trkpt lat="44.03742" lon="1.66403">
        <ele>177</ele>
        <time>2012-09-22T05:27:33Z</time>
      </trkpt>
      <trkpt lat="44.03726" lon="1.66394">
        <ele>177</ele>
        <time>2012-09-22T05:27:33Z</time>
      </trkpt>
      <trkpt lat="44.03719" lon="1.6644">
        <ele>174</ele>
        <time>2012-09-22T05:27:33Z</time>
      </trkpt>
      <trkpt lat="44.03701" lon="1.66475">
        <ele>176</ele>
        <time>2012-09-22T05:27:33Z</time>
      </trkpt>
      <trkpt lat="44.03668" lon="1.66517">
        <ele>182</ele>
        <time>2012-09-22T05:27:33Z</time>
      </trkpt>
      <trkpt lat="44.03642" lon="1.66561">
        <ele>185</ele>
        <time>2012-09-22T05:27:33Z</time>
      </trkpt>
      <trkpt lat="44.0363" lon="1.66594">
        <ele>186</ele>
        <time>2012-09-22T05:27:33Z</time>
      </trkpt>
      <trkpt lat="44.036" lon="1.66615">
        <ele>185</ele>
        <time>2012-09-22T05:27:33Z</time>
      </trkpt>
      <trkpt lat="44.03574" lon="1.66617">
        <ele>182</ele>
        <time>2012-09-22T05:27:33Z</time>
      </trkpt>
      <trkpt lat="44.03501" lon="1.66561">
        <ele>184</ele>
        <time>2012-09-22T05:27:33Z</time>
      </trkpt>
      <trkpt lat="44.03412" lon="1.66548">
        <ele>181</ele>
        <time>2012-09-22T05:27:33Z</time>
      </trkpt>
      <trkpt lat="44.0333" lon="1.66557">
        <ele>189</ele>
        <time>2012-09-22T05:27:33Z</time>
      </trkpt>
      <trkpt lat="44.03272" lon="1.66575">
        <ele>195</ele>
        <time>2012-09-22T05:27:33Z</time>
      </trkpt>
      <trkpt lat="44.032" lon="1.66623">
        <ele>195</ele>
        <time>2012-09-22T05:27:33Z</time>
      </trkpt>
      <trkpt lat="44.03046" lon="1.66666">
        <ele>212</ele>
        <time>2012-09-22T05:27:33Z</time>
      </trkpt>
      <trkpt lat="44.02933" lon="1.66682">
        <ele>229</ele>
        <time>2012-09-22T05:27:33Z</time>
      </trkpt>
      <trkpt lat="44.02904" lon="1.66678">
        <ele>230</ele>
        <time>2012-09-22T05:27:33Z</time>
      </trkpt>
      <trkpt lat="44.02901" lon="1.66607">
        <ele>233</ele>
        <time>2012-09-22T05:27:33Z</time>
      </trkpt>
      <trkpt lat="44.029" lon="1.66509">
        <ele>234</ele>
        <time>2012-09-22T05:27:33Z</time>
      </trkpt>
      <trkpt lat="44.0289" lon="1.66453">
        <ele>231</ele>
        <time>2012-09-22T05:27:33Z</time>
      </trkpt>
      <trkpt lat="44.0288" lon="1.66415">
        <ele>230</ele>
        <time>2012-09-22T05:27:33Z</time>
      </trkpt>
      <trkpt lat="44.02862" lon="1.66401">
        <ele>229</ele>
        <time>2012-09-22T05:27:33Z</time>
      </trkpt>
      <trkpt lat="44.02785" lon="1.66419">
        <ele>237</ele>
        <time>2012-09-22T05:27:33Z</time>
      </trkpt>
      <trkpt lat="44.02744" lon="1.66412">
        <ele>240</ele>
        <time>2012-09-22T05:27:33Z</time>
      </trkpt>
      <trkpt lat="44.02669" lon="1.66333">
        <ele>243</ele>
        <time>2012-09-22T05:27:33Z</time>
      </trkpt>
      <trkpt lat="44.02647" lon="1.66318">
        <ele>241</ele>
        <time>2012-09-22T05:27:33Z</time>
      </trkpt>
      <trkpt lat="44.02604" lon="1.66331">
        <ele>242</ele>
        <time>2012-09-22T05:27:33Z</time>
      </trkpt>
      <trkpt lat="44.02564" lon="1.66337">
        <ele>243</ele>
        <time>2012-09-22T05:27:33Z</time>
      </trkpt>
      <trkpt lat="44.0253" lon="1.66339">
        <ele>243</ele>
        <time>2012-09-22T05:27:33Z</time>
      </trkpt>
      <trkpt lat="44.02525" lon="1.66311">
        <ele>244</ele>
        <time>2012-09-22T05:27:33Z</time>
      </trkpt>
      <trkpt lat="44.02514" lon="1.66296">
        <ele>244</ele>
        <time>2012-09-22T05:27:33Z</time>
      </trkpt>
      <trkpt lat="44.02404" lon="1.66219">
        <ele>241</ele>
        <time>2012-09-22T05:27:33Z</time>
      </trkpt>
      <trkpt lat="44.02159" lon="1.6625">
        <ele>227</ele>
        <time>2012-09-22T05:27:33Z</time>
      </trkpt>
      <trkpt lat="44.02075" lon="1.66301">
        <ele>226</ele>
        <time>2012-09-22T05:27:33Z</time>
      </trkpt>
      <trkpt lat="44.01937" lon="1.66363">
        <ele>224</ele>
        <time>2012-09-22T05:27:33Z</time>
      </trkpt>
      <trkpt lat="44.01888" lon="1.66372">
        <ele>221</ele>
        <time>2012-09-22T05:27:33Z</time>
      </trkpt>
      <trkpt lat="44.01888" lon="1.664">
        <ele>220</ele>
        <time>2012-09-22T05:27:33Z</time>
      </trkpt>
      <trkpt lat="44.01896" lon="1.66531">
        <ele>230</ele>
        <time>2012-09-22T05:27:33Z</time>
      </trkpt>
      <trkpt lat="44.01904" lon="1.66621">
        <ele>244</ele>
        <time>2012-09-22T05:27:33Z</time>
      </trkpt>
      <trkpt lat="44.01925" lon="1.66681">
        <ele>244</ele>
        <time>2012-09-22T05:27:33Z</time>
      </trkpt>
      <trkpt lat="44.01951" lon="1.667">
        <ele>246</ele>
        <time>2012-09-22T05:27:33Z</time>
      </trkpt>
      <trkpt lat="44.01965" lon="1.66738">
        <ele>245</ele>
        <time>2012-09-22T05:27:33Z</time>
      </trkpt>
      <trkpt lat="44.01964" lon="1.66799">
        <ele>234</ele>
        <time>2012-09-22T05:27:33Z</time>
      </trkpt>
      <trkpt lat="44.01936" lon="1.66921">
        <ele>207</ele>
        <time>2012-09-22T05:27:33Z</time>
      </trkpt>
      <trkpt lat="44.01906" lon="1.66985">
        <ele>187</ele>
        <time>2012-09-22T05:27:33Z</time>
      </trkpt>
      <trkpt lat="44.01893" lon="1.67034">
        <ele>178</ele>
        <time>2012-09-22T05:27:33Z</time>
      </trkpt>
      <trkpt lat="44.01852" lon="1.67093">
        <ele>166</ele>
        <time>2012-09-22T05:27:33Z</time>
      </trkpt>
      <trkpt lat="44.01773" lon="1.67181">
        <ele>156</ele>
        <time>2012-09-22T05:27:33Z</time>
      </trkpt>
      <trkpt lat="44.01751" lon="1.67221">
        <ele>151</ele>
        <time>2012-09-22T05:27:33Z</time>
      </trkpt>
      <trkpt lat="44.01738" lon="1.67268">
        <ele>146</ele>
        <time>2012-09-22T05:27:33Z</time>
      </trkpt>
      <trkpt lat="44.01731" lon="1.67389">
        <ele>142</ele>
        <time>2012-09-22T05:27:33Z</time>
      </trkpt>
      <trkpt lat="44.01735" lon="1.67465">
        <ele>138</ele>
        <time>2012-09-22T05:27:33Z</time>
      </trkpt>
      <trkpt lat="44.01742" lon="1.67484">
        <ele>136</ele>
        <time>2012-09-22T05:27:33Z</time>
      </trkpt>
      <trkpt lat="44.0174" lon="1.67509">
        <ele>131</ele>
        <time>2012-09-22T05:27:33Z</time>
      </trkpt>
      <trkpt lat="44.0173" lon="1.67532">
        <ele>126</ele>
        <time>2012-09-22T05:27:33Z</time>
      </trkpt>
      <trkpt lat="44.01712" lon="1.67522">
        <ele>124</ele>
        <time>2012-09-22T05:27:33Z</time>
      </trkpt>
      <trkpt lat="44.01684" lon="1.67491">
        <ele>123</ele>
        <time>2012-09-22T05:27:33Z</time>
      </trkpt>
      <trkpt lat="44.01654" lon="1.67393">
        <ele>121</ele>
        <time>2012-09-22T05:27:33Z</time>
      </trkpt>
      <trkpt lat="44.01651" lon="1.67336">
        <ele>122</ele>
        <time>2012-09-22T05:27:33Z</time>
      </trkpt>
      <trkpt lat="44.01669" lon="1.67326">
        <ele>126</ele>
        <time>2012-09-22T05:27:33Z</time>
      </trkpt>
      <trkpt lat="44.01677" lon="1.67178">
        <ele>123</ele>
        <time>2012-09-22T05:27:33Z</time>
      </trkpt>
      <trkpt lat="44.01696" lon="1.67143">
        <ele>123</ele>
        <time>2012-09-22T05:27:33Z</time>
      </trkpt>
      <trkpt lat="44.01738" lon="1.67115">
        <ele>129</ele>
        <time>2012-09-22T05:27:33Z</time>
      </trkpt>
      <trkpt lat="44.01778" lon="1.6708">
        <ele>135</ele>
        <time>2012-09-22T05:27:33Z</time>
      </trkpt>
      <trkpt lat="44.01806" lon="1.66988">
        <ele>129</ele>
        <time>2012-09-22T05:27:33Z</time>
      </trkpt>
      <trkpt lat="44.01802" lon="1.66918">
        <ele>127</ele>
        <time>2012-09-22T05:27:33Z</time>
      </trkpt>
      <trkpt lat="44.01783" lon="1.66875">
        <ele>124</ele>
        <time>2012-09-22T05:27:33Z</time>
      </trkpt>
      <trkpt lat="44.01756" lon="1.66842">
        <ele>129</ele>
        <time>2012-09-22T05:27:33Z</time>
      </trkpt>
      <trkpt lat="44.01729" lon="1.6683">
        <ele>131</ele>
        <time>2012-09-22T05:27:33Z</time>
      </trkpt>
      <trkpt lat="44.01687" lon="1.66827">
        <ele>133</ele>
        <time>2012-09-22T05:27:33Z</time>
      </trkpt>
      <trkpt lat="44.01618" lon="1.66861">
        <ele>134</ele>
        <time>2012-09-22T05:27:33Z</time>
      </trkpt>
      <trkpt lat="44.01589" lon="1.66869">
        <ele>135</ele>
        <time>2012-09-22T05:27:33Z</time>
      </trkpt>
      <trkpt lat="44.01495" lon="1.67035">
        <ele>134</ele>
        <time>2012-09-22T05:27:33Z</time>
      </trkpt>
      <trkpt lat="44.01459" lon="1.67146">
        <ele>134</ele>
        <time>2012-09-22T05:27:33Z</time>
      </trkpt>
      <trkpt lat="44.01413" lon="1.67212">
        <ele>136</ele>
        <time>2012-09-22T05:27:33Z</time>
      </trkpt>
      <trkpt lat="44.01388" lon="1.6727">
        <ele>137</ele>
        <time>2012-09-22T05:27:33Z</time>
      </trkpt>
      <trkpt lat="44.01368" lon="1.67398">
        <ele>132</ele>
        <time>2012-09-22T05:27:33Z</time>
      </trkpt>
      <trkpt lat="44.01336" lon="1.67475">
        <ele>130</ele>
        <time>2012-09-22T05:27:33Z</time>
      </trkpt>
      <trkpt lat="44.01265" lon="1.67569">
        <ele>130</ele>
        <time>2012-09-22T05:27:33Z</time>
      </trkpt>
      <trkpt lat="44.01238" lon="1.67627">
        <ele>129</ele>
        <time>2012-09-22T05:27:33Z</time>
      </trkpt>
      <trkpt lat="44.01207" lon="1.67676">
        <ele>128</ele>
        <time>2012-09-22T05:27:33Z</time>
      </trkpt>
      <trkpt lat="44.01206" lon="1.67747">
        <ele>127</ele>
        <time>2012-09-22T05:27:33Z</time>
      </trkpt>
      <trkpt lat="44.01219" lon="1.67791">
        <ele>128</ele>
        <time>2012-09-22T05:27:33Z</time>
      </trkpt>
      <trkpt lat="44.01249" lon="1.67851">
        <ele>129</ele>
        <time>2012-09-22T05:27:33Z</time>
      </trkpt>
      <trkpt lat="44.01291" lon="1.67921">
        <ele>130</ele>
        <time>2012-09-22T05:27:33Z</time>
      </trkpt>
      <trkpt lat="44.01305" lon="1.67989">
        <ele>132</ele>
        <time>2012-09-22T05:27:33Z</time>
      </trkpt>
      <trkpt lat="44.01304" lon="1.68025">
        <ele>134</ele>
        <time>2012-09-22T05:27:33Z</time>
      </trkpt>
      <trkpt lat="44.01314" lon="1.68087">
        <ele>141</ele>
        <time>2012-09-22T05:27:33Z</time>
      </trkpt>
      <trkpt lat="44.01273" lon="1.68128">
        <ele>140</ele>
        <time>2012-09-22T05:27:33Z</time>
      </trkpt>
      <trkpt lat="44.01201" lon="1.68163">
        <ele>142</ele>
        <time>2012-09-22T05:27:33Z</time>
      </trkpt>
      <trkpt lat="44.01152" lon="1.68165">
        <ele>140</ele>
        <time>2012-09-22T05:27:33Z</time>
      </trkpt>
      <trkpt lat="44.0111" lon="1.68194">
        <ele>139</ele>
        <time>2012-09-22T05:27:33Z</time>
      </trkpt>
      <trkpt lat="44.01042" lon="1.68275">
        <ele>137</ele>
        <time>2012-09-22T05:27:33Z</time>
      </trkpt>
      <trkpt lat="44.01061" lon="1.6839">
        <ele>142</ele>
        <time>2012-09-22T05:27:33Z</time>
      </trkpt>
      <trkpt lat="44.01063" lon="1.68493">
        <ele>140</ele>
        <time>2012-09-22T05:27:33Z</time>
      </trkpt>
      <trkpt lat="44.01102" lon="1.68723">
        <ele>149</ele>
        <time>2012-09-22T05:27:33Z</time>
      </trkpt>
      <trkpt lat="44.01101" lon="1.68753">
        <ele>146</ele>
        <time>2012-09-22T05:27:33Z</time>
      </trkpt>
      <trkpt lat="44.01164" lon="1.68897">
        <ele>154</ele>
        <time>2012-09-22T05:27:33Z</time>
      </trkpt>
      <trkpt lat="44.01204" lon="1.68951">
        <ele>156</ele>
        <time>2012-09-22T05:27:33Z</time>
      </trkpt>
      <trkpt lat="44.01258" lon="1.6907">
        <ele>159</ele>
        <time>2012-09-22T05:27:33Z</time>
      </trkpt>
      <trkpt lat="44.01314" lon="1.692">
        <ele>160</ele>
        <time>2012-09-22T05:27:33Z</time>
      </trkpt>
      <trkpt lat="44.0136" lon="1.693">
        <ele>164</ele>
        <time>2012-09-22T05:27:33Z</time>
      </trkpt>
      <trkpt lat="44.01386" lon="1.69368">
        <ele>174</ele>
        <time>2012-09-22T05:27:33Z</time>
      </trkpt>
      <trkpt lat="44.01392" lon="1.69447">
        <ele>179</ele>
        <time>2012-09-22T05:27:33Z</time>
      </trkpt>
      <trkpt lat="44.01438" lon="1.69573">
        <ele>183</ele>
        <time>2012-09-22T05:27:33Z</time>
      </trkpt>
      <trkpt lat="44.01451" lon="1.69633">
        <ele>182</ele>
        <time>2012-09-22T05:27:33Z</time>
      </trkpt>
      <trkpt lat="44.01449" lon="1.69664">
        <ele>182</ele>
        <time>2012-09-22T05:27:33Z</time>
      </trkpt>
      <trkpt lat="44.01431" lon="1.69702">
        <ele>184</ele>
        <time>2012-09-22T05:27:33Z</time>
      </trkpt>
      <trkpt lat="44.01415" lon="1.69747">
        <ele>185</ele>
        <time>2012-09-22T05:27:33Z</time>
      </trkpt>
      <trkpt lat="44.01422" lon="1.69789">
        <ele>189</ele>
        <time>2012-09-22T05:27:33Z</time>
      </trkpt>
      <trkpt lat="44.01432" lon="1.69838">
        <ele>194</ele>
        <time>2012-09-22T05:27:33Z</time>
      </trkpt>
      <trkpt lat="44.01444" lon="1.69869">
        <ele>194</ele>
        <time>2012-09-22T05:27:33Z</time>
      </trkpt>
      <trkpt lat="44.01468" lon="1.69903">
        <ele>196</ele>
        <time>2012-09-22T05:27:33Z</time>
      </trkpt>
      <trkpt lat="44.0149" lon="1.69919">
        <ele>197</ele>
        <time>2012-09-22T05:27:33Z</time>
      </trkpt>
      <trkpt lat="44.01511" lon="1.69943">
        <ele>196</ele>
        <time>2012-09-22T05:27:33Z</time>
      </trkpt>
      <trkpt lat="44.01525" lon="1.69974">
        <ele>197</ele>
        <time>2012-09-22T05:27:33Z</time>
      </trkpt>
      <trkpt lat="44.01527" lon="1.70037">
        <ele>201</ele>
        <time>2012-09-22T05:27:33Z</time>
      </trkpt>
      <trkpt lat="44.01504" lon="1.7003">
        <ele>202</ele>
        <time>2012-09-22T05:27:33Z</time>
      </trkpt>
      <trkpt lat="44.01422" lon="1.69987">
        <ele>210</ele>
        <time>2012-09-22T05:27:33Z</time>
      </trkpt>
      <trkpt lat="44.01369" lon="1.69936">
        <ele>212</ele>
        <time>2012-09-22T05:27:33Z</time>
      </trkpt>
      <trkpt lat="44.01333" lon="1.69868">
        <ele>218</ele>
        <time>2012-09-22T05:27:33Z</time>
      </trkpt>
      <trkpt lat="44.01313" lon="1.69814">
        <ele>224</ele>
        <time>2012-09-22T05:27:33Z</time>
      </trkpt>
      <trkpt lat="44.01296" lon="1.69789">
        <ele>225</ele>
        <time>2012-09-22T05:27:33Z</time>
      </trkpt>
      <trkpt lat="44.01087" lon="1.69801">
        <ele>232</ele>
        <time>2012-09-22T05:27:33Z</time>
      </trkpt>
      <trkpt lat="44.01055" lon="1.69812">
        <ele>232</ele>
        <time>2012-09-22T05:27:33Z</time>
      </trkpt>
      <trkpt lat="44.0103" lon="1.69812">
        <ele>231</ele>
        <time>2012-09-22T05:27:33Z</time>
      </trkpt>
      <trkpt lat="44.01021" lon="1.69795">
        <ele>231</ele>
        <time>2012-09-22T05:27:33Z</time>
      </trkpt>
      <trkpt lat="44.0102" lon="1.6968">
        <ele>236</ele>
        <time>2012-09-22T05:27:33Z</time>
      </trkpt>
      <trkpt lat="44.00945" lon="1.69583">
        <ele>246</ele>
        <time>2012-09-22T05:27:33Z</time>
      </trkpt>
      <trkpt lat="44.00862" lon="1.69514">
        <ele>255</ele>
        <time>2012-09-22T05:27:33Z</time>
      </trkpt>
      <trkpt lat="44.00809" lon="1.69507">
        <ele>259</ele>
        <time>2012-09-22T05:27:33Z</time>
      </trkpt>
      <trkpt lat="44.00767" lon="1.69484">
        <ele>261</ele>
        <time>2012-09-22T05:27:33Z</time>
      </trkpt>
      <trkpt lat="44.00747" lon="1.69458">
        <ele>261</ele>
        <time>2012-09-22T05:27:33Z</time>
      </trkpt>
      <trkpt lat="44.00701" lon="1.69365">
        <ele>261</ele>
        <time>2012-09-22T05:27:33Z</time>
      </trkpt>
      <trkpt lat="44.00665" lon="1.69329">
        <ele>259</ele>
        <time>2012-09-22T05:27:33Z</time>
      </trkpt>
      <trkpt lat="44.00607" lon="1.69305">
        <ele>249</ele>
        <time>2012-09-22T05:27:33Z</time>
      </trkpt>
      <trkpt lat="44.00575" lon="1.69308">
        <ele>245</ele>
        <time>2012-09-22T05:27:33Z</time>
      </trkpt>
      <trkpt lat="44.0052" lon="1.69331">
        <ele>239</ele>
        <time>2012-09-22T05:27:33Z</time>
      </trkpt>
      <trkpt lat="44.00505" lon="1.69359">
        <ele>240</ele>
        <time>2012-09-22T05:27:33Z</time>
      </trkpt>
      <trkpt lat="44.00487" lon="1.69442">
        <ele>246</ele>
        <time>2012-09-22T05:27:33Z</time>
      </trkpt>
      <trkpt lat="44.00482" lon="1.6952">
        <ele>256</ele>
        <time>2012-09-22T05:27:33Z</time>
      </trkpt>
      <trkpt lat="44.00493" lon="1.69601">
        <ele>259</ele>
        <time>2012-09-22T05:27:33Z</time>
      </trkpt>
      <trkpt lat="44.00537" lon="1.6972">
        <ele>268</ele>
        <time>2012-09-22T05:27:33Z</time>
      </trkpt>
      <trkpt lat="44.0063" lon="1.69826">
        <ele>279</ele>
        <time>2012-09-22T05:27:33Z</time>
      </trkpt>
      <trkpt lat="44.00715" lon="1.69931">
        <ele>287</ele>
        <time>2012-09-22T05:27:33Z</time>
      </trkpt>
      <trkpt lat="44.00773" lon="1.70008">
        <ele>291</ele>
        <time>2012-09-22T05:27:33Z</time>
      </trkpt>
      <trkpt lat="44.0079" lon="1.70067">
        <ele>289</ele>
        <time>2012-09-22T05:27:33Z</time>
      </trkpt>
      <trkpt lat="44.00789" lon="1.70239">
        <ele>292</ele>
        <time>2012-09-22T05:27:33Z</time>
      </trkpt>
      <trkpt lat="44.00795" lon="1.7027">
        <ele>293</ele>
        <time>2012-09-22T05:27:33Z</time>
      </trkpt>
      <trkpt lat="44.00819" lon="1.70326">
        <ele>297</ele>
        <time>2012-09-22T05:27:33Z</time>
      </trkpt>
      <trkpt lat="44.00936" lon="1.7052">
        <ele>302</ele>
        <time>2012-09-22T05:27:33Z</time>
      </trkpt>
      <trkpt lat="44.00977" lon="1.70599">
        <ele>304</ele>
        <time>2012-09-22T05:27:33Z</time>
      </trkpt>
      <trkpt lat="44.01019" lon="1.7066">
        <ele>302</ele>
        <time>2012-09-22T05:27:33Z</time>
      </trkpt>
      <trkpt lat="44.01061" lon="1.7074">
        <ele>298</ele>
        <time>2012-09-22T05:27:33Z</time>
      </trkpt>
      <trkpt lat="44.01102" lon="1.70827">
        <ele>299</ele>
        <time>2012-09-22T05:27:33Z</time>
      </trkpt>
      <trkpt lat="44.01139" lon="1.70827">
        <ele>301</ele>
        <time>2012-09-22T05:27:33Z</time>
      </trkpt>
      <trkpt lat="44.01162" lon="1.70817">
        <ele>303</ele>
        <time>2012-09-22T05:27:33Z</time>
      </trkpt>
      <trkpt lat="44.01195" lon="1.70775">
        <ele>302</ele>
        <time>2012-09-22T05:27:33Z</time>
      </trkpt>
      <trkpt lat="44.01225" lon="1.70743">
        <ele>302</ele>
        <time>2012-09-22T05:27:33Z</time>
      </trkpt>
      <trkpt lat="44.01244" lon="1.70712">
        <ele>300</ele>
        <time>2012-09-22T05:27:33Z</time>
      </trkpt>
      <trkpt lat="44.01329" lon="1.70648">
        <ele>307</ele>
        <time>2012-09-22T05:27:33Z</time>
      </trkpt>
      <trkpt lat="44.01269" lon="1.70743">
        <ele>309</ele>
        <time>2012-09-22T05:27:33Z</time>
      </trkpt>
      <trkpt lat="44.01224" lon="1.70826">
        <ele>313</ele>
        <time>2012-09-22T05:27:33Z</time>
      </trkpt>
      <trkpt lat="44.01189" lon="1.70907">
        <ele>318</ele>
        <time>2012-09-22T05:27:33Z</time>
      </trkpt>
      <trkpt lat="44.01125" lon="1.71035">
        <ele>323</ele>
        <time>2012-09-22T05:27:33Z</time>
      </trkpt>
      <trkpt lat="44.01104" lon="1.71107">
        <ele>326</ele>
        <time>2012-09-22T05:27:33Z</time>
      </trkpt>
      <trkpt lat="44.01083" lon="1.71157">
        <ele>327</ele>
        <time>2012-09-22T05:27:33Z</time>
      </trkpt>
      <trkpt lat="44.01157" lon="1.71315">
        <ele>332</ele>
        <time>2012-09-22T05:27:33Z</time>
      </trkpt>
      <trkpt lat="44.01187" lon="1.71397">
        <ele>327</ele>
        <time>2012-09-22T05:27:33Z</time>
      </trkpt>
      <trkpt lat="44.01227" lon="1.71447">
        <ele>326</ele>
        <time>2012-09-22T05:27:33Z</time>
      </trkpt>
      <trkpt lat="44.01256" lon="1.71473">
        <ele>330</ele>
        <time>2012-09-22T05:27:33Z</time>
      </trkpt>
      <trkpt lat="44.01277" lon="1.71577">
        <ele>324</ele>
        <time>2012-09-22T05:27:33Z</time>
      </trkpt>
      <trkpt lat="44.01325" lon="1.71594">
        <ele>328</ele>
        <time>2012-09-22T05:27:33Z</time>
      </trkpt>
      <trkpt lat="44.01355" lon="1.71595">
        <ele>335</ele>
        <time>2012-09-22T05:27:33Z</time>
      </trkpt>
      <trkpt lat="44.01389" lon="1.71606">
        <ele>339</ele>
        <time>2012-09-22T05:27:33Z</time>
      </trkpt>
      <trkpt lat="44.01404" lon="1.71607">
        <ele>342</ele>
        <time>2012-09-22T05:27:33Z</time>
      </trkpt>
      <trkpt lat="44.01391" lon="1.71638">
        <ele>342</ele>
        <time>2012-09-22T05:27:33Z</time>
      </trkpt>
      <trkpt lat="44.01368" lon="1.71677">
        <ele>342</ele>
        <time>2012-09-22T05:27:33Z</time>
      </trkpt>
      <trkpt lat="44.01405" lon="1.7175">
        <ele>358</ele>
        <time>2012-09-22T05:27:33Z</time>
      </trkpt>
      <trkpt lat="44.01467" lon="1.71851">
        <ele>365</ele>
        <time>2012-09-22T05:27:33Z</time>
      </trkpt>
      <trkpt lat="44.01533" lon="1.71936">
        <ele>369</ele>
        <time>2012-09-22T05:27:33Z</time>
      </trkpt>
      <trkpt lat="44.01589" lon="1.72042">
        <ele>359</ele>
        <time>2012-09-22T05:27:33Z</time>
      </trkpt>
      <trkpt lat="44.01654" lon="1.72132">
        <ele>350</ele>
        <time>2012-09-22T05:27:33Z</time>
      </trkpt>
      <trkpt lat="44.01707" lon="1.72219">
        <ele>337</ele>
        <time>2012-09-22T05:27:33Z</time>
      </trkpt>
      <trkpt lat="44.01768" lon="1.72263">
        <ele>341</ele>
        <time>2012-09-22T05:27:33Z</time>
      </trkpt>
      <trkpt lat="44.0184" lon="1.72323">
        <ele>338</ele>
        <time>2012-09-22T05:27:33Z</time>
      </trkpt>
      <trkpt lat="44.01879" lon="1.72365">
        <ele>335</ele>
        <time>2012-09-22T05:27:33Z</time>
      </trkpt>
      <trkpt lat="44.01741" lon="1.72443">
        <ele>322</ele>
        <time>2012-09-22T05:27:33Z</time>
      </trkpt>
      <trkpt lat="44.01649" lon="1.72486">
        <ele>320</ele>
        <time>2012-09-22T05:27:33Z</time>
      </trkpt>
      <trkpt lat="44.01622" lon="1.7247">
        <ele>319</ele>
        <time>2012-09-22T05:27:33Z</time>
      </trkpt>
      <trkpt lat="44.01563" lon="1.72421">
        <ele>311</ele>
        <time>2012-09-22T05:27:33Z</time>
      </trkpt>
      <trkpt lat="44.0149" lon="1.72355">
        <ele>300</ele>
        <time>2012-09-22T05:27:33Z</time>
      </trkpt>
      <trkpt lat="44.01466" lon="1.7233">
        <ele>296</ele>
        <time>2012-09-22T05:27:33Z</time>
      </trkpt>
      <trkpt lat="44.01385" lon="1.72306">
        <ele>291</ele>
        <time>2012-09-22T05:27:33Z</time>
      </trkpt>
      <trkpt lat="44.01354" lon="1.72304">
        <ele>298</ele>
        <time>2012-09-22T05:27:33Z</time>
      </trkpt>
      <trkpt lat="44.01308" lon="1.72323">
        <ele>309</ele>
        <time>2012-09-22T05:27:33Z</time>
      </trkpt>
      <trkpt lat="44.0126" lon="1.72361">
        <ele>317</ele>
        <time>2012-09-22T05:27:33Z</time>
      </trkpt>
      <trkpt lat="44.0125" lon="1.72393">
        <ele>318</ele>
        <time>2012-09-22T05:27:33Z</time>
      </trkpt>
      <trkpt lat="44.01268" lon="1.72449">
        <ele>319</ele>
        <time>2012-09-22T05:27:33Z</time>
      </trkpt>
      <trkpt lat="44.01262" lon="1.72532">
        <ele>322</ele>
        <time>2012-09-22T05:27:33Z</time>
      </trkpt>
      <trkpt lat="44.01231" lon="1.72618">
        <ele>326</ele>
        <time>2012-09-22T05:27:33Z</time>
      </trkpt>
      <trkpt lat="44.01197" lon="1.72691">
        <ele>330</ele>
        <time>2012-09-22T05:27:33Z</time>
      </trkpt>
      <trkpt lat="44.01196" lon="1.72782">
        <ele>333</ele>
        <time>2012-09-22T05:27:33Z</time>
      </trkpt>
      <trkpt lat="44.01214" lon="1.72866">
        <ele>332</ele>
        <time>2012-09-22T05:27:33Z</time>
      </trkpt>
      <trkpt lat="44.01242" lon="1.72968">
        <ele>329</ele>
        <time>2012-09-22T05:27:33Z</time>
      </trkpt>
      <trkpt lat="44.0125" lon="1.7299">
        <ele>329</ele>
        <time>2012-09-22T05:27:33Z</time>
      </trkpt>
      <trkpt lat="44.01215" lon="1.73023">
        <ele>330</ele>
        <time>2012-09-22T05:27:33Z</time>
      </trkpt>
      <trkpt lat="44.01173" lon="1.73033">
        <ele>333</ele>
        <time>2012-09-22T05:27:33Z</time>
      </trkpt>
      <trkpt lat="44.0111" lon="1.73027">
        <ele>339</ele>
        <time>2012-09-22T05:27:33Z</time>
      </trkpt>
      <trkpt lat="44.01084" lon="1.7299">
        <ele>341</ele>
        <time>2012-09-22T05:27:33Z</time>
      </trkpt>
      <trkpt lat="44.01069" lon="1.72945">
        <ele>341</ele>
        <time>2012-09-22T05:27:33Z</time>
      </trkpt>
      <trkpt lat="44.01031" lon="1.7291">
        <ele>344</ele>
        <time>2012-09-22T05:27:33Z</time>
      </trkpt>
      <trkpt lat="44.00989" lon="1.72899">
        <ele>349</ele>
        <time>2012-09-22T05:27:33Z</time>
      </trkpt>
      <trkpt lat="44.00948" lon="1.72906">
        <ele>353</ele>
        <time>2012-09-22T05:27:33Z</time>
      </trkpt>
      <trkpt lat="44.00925" lon="1.72906">
        <ele>356</ele>
        <time>2012-09-22T05:27:33Z</time>
      </trkpt>
      <trkpt lat="44.00897" lon="1.72894">
        <ele>358</ele>
        <time>2012-09-22T05:27:33Z</time>
      </trkpt>
      <trkpt lat="44.00881" lon="1.72838">
        <ele>356</ele>
        <time>2012-09-22T05:27:33Z</time>
      </trkpt>
      <trkpt lat="44.00887" lon="1.72734">
        <ele>359</ele>
        <time>2012-09-22T05:27:33Z</time>
      </trkpt>
      <trkpt lat="44.00882" lon="1.72664">
        <ele>360</ele>
        <time>2012-09-22T05:27:33Z</time>
      </trkpt>
      <trkpt lat="44.00856" lon="1.72619">
        <ele>359</ele>
        <time>2012-09-22T05:27:33Z</time>
      </trkpt>
      <trkpt lat="44.00651" lon="1.72447">
        <ele>344</ele>
        <time>2012-09-22T05:27:33Z</time>
      </trkpt>
      <trkpt lat="44.00575" lon="1.72412">
        <ele>347</ele>
        <time>2012-09-22T05:27:33Z</time>
      </trkpt>
      <trkpt lat="44.00524" lon="1.72401">
        <ele>349</ele>
        <time>2012-09-22T05:27:33Z</time>
      </trkpt>
      <trkpt lat="44.00473" lon="1.72411">
        <ele>349</ele>
        <time>2012-09-22T05:27:33Z</time>
      </trkpt>
      <trkpt lat="44.00423" lon="1.72407">
        <ele>349</ele>
        <time>2012-09-22T05:27:33Z</time>
      </trkpt>
      <trkpt lat="44.00386" lon="1.7237">
        <ele>349</ele>
        <time>2012-09-22T05:27:33Z</time>
      </trkpt>
      <trkpt lat="44.00351" lon="1.7235">
        <ele>348</ele>
        <time>2012-09-22T05:27:33Z</time>
      </trkpt>
      <trkpt lat="44.00347" lon="1.72333">
        <ele>347</ele>
        <time>2012-09-22T05:27:33Z</time>
      </trkpt>
      <trkpt lat="44.00362" lon="1.72292">
        <ele>346</ele>
        <time>2012-09-22T05:27:33Z</time>
      </trkpt>
      <trkpt lat="44.00416" lon="1.72088">
        <ele>336</ele>
        <time>2012-09-22T05:27:33Z</time>
      </trkpt>
      <trkpt lat="44.00431" lon="1.7203">
        <ele>332</ele>
        <time>2012-09-22T05:27:33Z</time>
      </trkpt>
      <trkpt lat="44.00476" lon="1.71888">
        <ele>320</ele>
        <time>2012-09-22T05:27:33Z</time>
      </trkpt>
      <trkpt lat="44.00505" lon="1.71852">
        <ele>314</ele>
        <time>2012-09-22T05:27:33Z</time>
      </trkpt>
      <trkpt lat="44.00552" lon="1.7194">
        <ele>309</ele>
        <time>2012-09-22T05:27:33Z</time>
      </trkpt>
      <trkpt lat="44.00575" lon="1.71987">
        <ele>311</ele>
        <time>2012-09-22T05:27:33Z</time>
      </trkpt>
      <trkpt lat="44.00612" lon="1.71988">
        <ele>308</ele>
        <time>2012-09-22T05:27:33Z</time>
      </trkpt>
      <trkpt lat="44.00658" lon="1.71961">
        <ele>304</ele>
        <time>2012-09-22T05:27:33Z</time>
      </trkpt>
      <trkpt lat="44.00696" lon="1.71917">
        <ele>299</ele>
        <time>2012-09-22T05:27:33Z</time>
      </trkpt>
      <trkpt lat="44.00725" lon="1.71901">
        <ele>295</ele>
        <time>2012-09-22T05:27:33Z</time>
      </trkpt>
      <trkpt lat="44.00753" lon="1.71897">
        <ele>292</ele>
        <time>2012-09-22T05:27:33Z</time>
      </trkpt>
      <trkpt lat="44.00754" lon="1.71852">
        <ele>288</ele>
        <time>2012-09-22T05:27:33Z</time>
      </trkpt>
      <trkpt lat="44.00766" lon="1.71721">
        <ele>273</ele>
        <time>2012-09-22T05:27:33Z</time>
      </trkpt>
      <trkpt lat="44.00759" lon="1.71656">
        <ele>260</ele>
        <time>2012-09-22T05:27:33Z</time>
      </trkpt>
      <trkpt lat="44.00766" lon="1.71575">
        <ele>233</ele>
        <time>2012-09-22T05:27:33Z</time>
      </trkpt>
      <trkpt lat="44.00766" lon="1.71527">
        <ele>230</ele>
        <time>2012-09-22T05:27:33Z</time>
      </trkpt>
      <trkpt lat="44.00713" lon="1.71487">
        <ele>226</ele>
        <time>2012-09-22T05:27:33Z</time>
      </trkpt>
      <trkpt lat="44.00673" lon="1.71436">
        <ele>222</ele>
        <time>2012-09-22T05:27:33Z</time>
      </trkpt>
      <trkpt lat="44.00619" lon="1.71393">
        <ele>219</ele>
        <time>2012-09-22T05:27:33Z</time>
      </trkpt>
      <trkpt lat="44.0056" lon="1.71373">
        <ele>212</ele>
        <time>2012-09-22T05:27:33Z</time>
      </trkpt>
      <trkpt lat="44.00511" lon="1.7135">
        <ele>209</ele>
        <time>2012-09-22T05:27:33Z</time>
      </trkpt>
      <trkpt lat="44.00385" lon="1.71226">
        <ele>204</ele>
        <time>2012-09-22T05:27:33Z</time>
      </trkpt>
      <trkpt lat="44.00288" lon="1.71135">
        <ele>199</ele>
        <time>2012-09-22T05:27:33Z</time>
      </trkpt>
      <trkpt lat="44.00279" lon="1.71102">
        <ele>200</ele>
        <time>2012-09-22T05:27:33Z</time>
      </trkpt>
      <trkpt lat="44.00247" lon="1.71036">
        <ele>205</ele>
        <time>2012-09-22T05:27:33Z</time>
      </trkpt>
      <trkpt lat="44.00219" lon="1.71008">
        <ele>207</ele>
        <time>2012-09-22T05:27:33Z</time>
      </trkpt>
      <trkpt lat="44.00182" lon="1.70959">
        <ele>214</ele>
        <time>2012-09-22T05:27:33Z</time>
      </trkpt>
      <trkpt lat="44.00161" lon="1.70917">
        <ele>222</ele>
        <time>2012-09-22T05:27:33Z</time>
      </trkpt>
      <trkpt lat="44.00217" lon="1.7088">
        <ele>237</ele>
        <time>2012-09-22T05:27:33Z</time>
      </trkpt>
      <trkpt lat="44.00254" lon="1.70847">
        <ele>250</ele>
        <time>2012-09-22T05:27:33Z</time>
      </trkpt>
      <trkpt lat="44.00295" lon="1.70814">
        <ele>267</ele>
        <time>2012-09-22T05:27:33Z</time>
      </trkpt>
      <trkpt lat="44.00328" lon="1.70832">
        <ele>274</ele>
        <time>2012-09-22T05:27:33Z</time>
      </trkpt>
      <trkpt lat="44.0037" lon="1.709">
        <ele>277</ele>
        <time>2012-09-22T05:27:33Z</time>
      </trkpt>
      <trkpt lat="44.00439" lon="1.70959">
        <ele>282</ele>
        <time>2012-09-22T05:27:33Z</time>
      </trkpt>
      <trkpt lat="44.00474" lon="1.70972">
        <ele>291</ele>
        <time>2012-09-22T05:27:33Z</time>
      </trkpt>
      <trkpt lat="44.00505" lon="1.71005">
        <ele>298</ele>
        <time>2012-09-22T05:27:33Z</time>
      </trkpt>
      <trkpt lat="44.00558" lon="1.71054">
        <ele>307</ele>
        <time>2012-09-22T05:27:33Z</time>
      </trkpt>
      <trkpt lat="44.00754" lon="1.7106">
        <ele>333</ele>
        <time>2012-09-22T05:27:33Z</time>
      </trkpt>
      <trkpt lat="44.00807" lon="1.7109">
        <ele>336</ele>
        <time>2012-09-22T05:27:33Z</time>
      </trkpt>
      <trkpt lat="44.00857" lon="1.71149">
        <ele>330</ele>
        <time>2012-09-22T05:27:33Z</time>
      </trkpt>
      <trkpt lat="44.00885" lon="1.71178">
        <ele>326</ele>
        <time>2012-09-22T05:27:33Z</time>
      </trkpt>
      <trkpt lat="44.00953" lon="1.71196">
        <ele>331</ele>
        <time>2012-09-22T05:27:33Z</time>
      </trkpt>
      <trkpt lat="44.01004" lon="1.71197">
        <ele>329</ele>
        <time>2012-09-22T05:27:33Z</time>
      </trkpt>
      <trkpt lat="44.01046" lon="1.71184">
        <ele>327</ele>
        <time>2012-09-22T05:27:33Z</time>
      </trkpt>
      <trkpt lat="44.01074" lon="1.71167">
        <ele>327</ele>
        <time>2012-09-22T05:27:33Z</time>
      </trkpt>
      <trkpt lat="44.01165" lon="1.71074">
        <ele>334</ele>
        <time>2012-09-22T05:27:33Z</time>
      </trkpt>
      <trkpt lat="44.01238" lon="1.70967">
        <ele>337</ele>
        <time>2012-09-22T05:27:33Z</time>
      </trkpt>
      <trkpt lat="44.01296" lon="1.70892">
        <ele>339</ele>
        <time>2012-09-22T05:27:33Z</time>
      </trkpt>
      <trkpt lat="44.01405" lon="1.70778">
        <ele>345</ele>
        <time>2012-09-22T05:27:33Z</time>
      </trkpt>
      <trkpt lat="44.0152" lon="1.70755">
        <ele>353</ele>
        <time>2012-09-22T05:27:33Z</time>
      </trkpt>
      <trkpt lat="44.01622" lon="1.70726">
        <ele>357</ele>
        <time>2012-09-22T05:27:33Z</time>
      </trkpt>
      <trkpt lat="44.01695" lon="1.70713">
        <ele>360</ele>
        <time>2012-09-22T05:27:33Z</time>
      </trkpt>
      <trkpt lat="44.01769" lon="1.70712">
        <ele>362</ele>
        <time>2012-09-22T05:27:33Z</time>
      </trkpt>
      <trkpt lat="44.01861" lon="1.70739">
        <ele>368</ele>
        <time>2012-09-22T05:27:33Z</time>
      </trkpt>
      <trkpt lat="44.01904" lon="1.70754">
        <ele>369</ele>
        <time>2012-09-22T05:27:33Z</time>
      </trkpt>
      <trkpt lat="44.01938" lon="1.70824">
        <ele>372</ele>
        <time>2012-09-22T05:27:33Z</time>
      </trkpt>
      <trkpt lat="44.01961" lon="1.70909">
        <ele>377</ele>
        <time>2012-09-22T05:27:33Z</time>
      </trkpt>
      <trkpt lat="44.01978" lon="1.70965">
        <ele>380</ele>
        <time>2012-09-22T05:27:33Z</time>
      </trkpt>
      <trkpt lat="44.01997" lon="1.70999">
        <ele>382</ele>
        <time>2012-09-22T05:27:33Z</time>
      </trkpt>
      <trkpt lat="44.02047" lon="1.71003">
        <ele>385</ele>
        <time>2012-09-22T05:27:33Z</time>
      </trkpt>
      <trkpt lat="44.02097" lon="1.71004">
        <ele>387</ele>
        <time>2012-09-22T05:27:33Z</time>
      </trkpt>
      <trkpt lat="44.02117" lon="1.71018">
        <ele>388</ele>
        <time>2012-09-22T05:27:33Z</time>
      </trkpt>
      <trkpt lat="44.02139" lon="1.71094">
        <ele>398</ele>
        <time>2012-09-22T05:27:33Z</time>
      </trkpt>
      <trkpt lat="44.02184" lon="1.71131">
        <ele>400</ele>
        <time>2012-09-22T05:27:33Z</time>
      </trkpt>
      <trkpt lat="44.02223" lon="1.71137">
        <ele>397</ele>
        <time>2012-09-22T05:27:33Z</time>
      </trkpt>
      <trkpt lat="44.02252" lon="1.71193">
        <ele>400</ele>
        <time>2012-09-22T05:27:33Z</time>
      </trkpt>
      <trkpt lat="44.02261" lon="1.71222">
        <ele>402</ele>
        <time>2012-09-22T05:27:33Z</time>
      </trkpt>
      <trkpt lat="44.02309" lon="1.71265">
        <ele>401</ele>
        <time>2012-09-22T05:27:33Z</time>
      </trkpt>
      <trkpt lat="44.0237" lon="1.71385">
        <ele>411</ele>
        <time>2012-09-22T05:27:33Z</time>
      </trkpt>
      <trkpt lat="44.02436" lon="1.71382">
        <ele>408</ele>
        <time>2012-09-22T05:27:33Z</time>
      </trkpt>
      <trkpt lat="44.02477" lon="1.71402">
        <ele>407</ele>
        <time>2012-09-22T05:27:33Z</time>
      </trkpt>
      <trkpt lat="44.02494" lon="1.71427">
        <ele>408</ele>
        <time>2012-09-22T05:27:33Z</time>
      </trkpt>
      <trkpt lat="44.02511" lon="1.71458">
        <ele>410</ele>
        <time>2012-09-22T05:27:33Z</time>
      </trkpt>
      <trkpt lat="44.02597" lon="1.71468">
        <ele>399</ele>
        <time>2012-09-22T05:27:33Z</time>
      </trkpt>
      <trkpt lat="44.02629" lon="1.71509">
        <ele>400</ele>
        <time>2012-09-22T05:27:33Z</time>
      </trkpt>
      <trkpt lat="44.02667" lon="1.71548">
        <ele>403</ele>
        <time>2012-09-22T05:27:33Z</time>
      </trkpt>
      <trkpt lat="44.0273" lon="1.71543">
        <ele>398</ele>
        <time>2012-09-22T05:27:33Z</time>
      </trkpt>
      <trkpt lat="44.02785" lon="1.71554">
        <ele>398</ele>
        <time>2012-09-22T05:27:33Z</time>
      </trkpt>
      <trkpt lat="44.02845" lon="1.71602">
        <ele>399</ele>
        <time>2012-09-22T05:27:33Z</time>
      </trkpt>
      <trkpt lat="44.02881" lon="1.71651">
        <ele>401</ele>
        <time>2012-09-22T05:27:33Z</time>
      </trkpt>
      <trkpt lat="44.02942" lon="1.7168">
        <ele>398</ele>
        <time>2012-09-22T05:27:33Z</time>
      </trkpt>
      <trkpt lat="44.03007" lon="1.7168">
        <ele>394</ele>
        <time>2012-09-22T05:27:33Z</time>
      </trkpt>
      <trkpt lat="44.03072" lon="1.71707">
        <ele>394</ele>
        <time>2012-09-22T05:27:33Z</time>
      </trkpt>
      <trkpt lat="44.03128" lon="1.71752">
        <ele>394</ele>
        <time>2012-09-22T05:27:33Z</time>
      </trkpt>
      <trkpt lat="44.03312" lon="1.71807">
        <ele>390</ele>
        <time>2012-09-22T05:27:33Z</time>
      </trkpt>
      <trkpt lat="44.03515" lon="1.71955">
        <ele>392</ele>
        <time>2012-09-22T05:27:33Z</time>
      </trkpt>
      <trkpt lat="44.03585" lon="1.71976">
        <ele>391</ele>
        <time>2012-09-22T05:27:33Z</time>
      </trkpt>
      <trkpt lat="44.03691" lon="1.71979">
        <ele>394</ele>
        <time>2012-09-22T05:27:33Z</time>
      </trkpt>
      <trkpt lat="44.03732" lon="1.71957">
        <ele>400</ele>
        <time>2012-09-22T05:27:33Z</time>
      </trkpt>
      <trkpt lat="44.03735" lon="1.71899">
        <ele>402</ele>
        <time>2012-09-22T05:27:33Z</time>
      </trkpt>
      <trkpt lat="44.03715" lon="1.71812">
        <ele>404</ele>
        <time>2012-09-22T05:27:33Z</time>
      </trkpt>
      <trkpt lat="44.03707" lon="1.71748">
        <ele>404</ele>
        <time>2012-09-22T05:27:33Z</time>
      </trkpt>
      <trkpt lat="44.03713" lon="1.71614">
        <ele>411</ele>
        <time>2012-09-22T05:27:33Z</time>
      </trkpt>
      <trkpt lat="44.03708" lon="1.71538">
        <ele>412</ele>
        <time>2012-09-22T05:27:33Z</time>
      </trkpt>
      <trkpt lat="44.03695" lon="1.71431">
        <ele>412</ele>
        <time>2012-09-22T05:27:33Z</time>
      </trkpt>
      <trkpt lat="44.03708" lon="1.71337">
        <ele>417</ele>
        <time>2012-09-22T05:27:33Z</time>
      </trkpt>
      <trkpt lat="44.03736" lon="1.71195">
        <ele>419</ele>
        <time>2012-09-22T05:27:33Z</time>
      </trkpt>
      <trkpt lat="44.03704" lon="1.7108">
        <ele>421</ele>
        <time>2012-09-22T05:27:33Z</time>
      </trkpt>
      <trkpt lat="44.03642" lon="1.70922">
        <ele>431</ele>
        <time>2012-09-22T05:27:33Z</time>
      </trkpt>
      <trkpt lat="44.03637" lon="1.70791">
        <ele>437</ele>
        <time>2012-09-22T05:27:33Z</time>
      </trkpt>
      <trkpt lat="44.03634" lon="1.70632">
        <ele>430</ele>
        <time>2012-09-22T05:27:33Z</time>
      </trkpt>
      <trkpt lat="44.03604" lon="1.70539">
        <ele>429</ele>
        <time>2012-09-22T05:27:33Z</time>
      </trkpt>
      <trkpt lat="44.03556" lon="1.70446">
        <ele>429</ele>
        <time>2012-09-22T05:27:33Z</time>
      </trkpt>
      <trkpt lat="44.03619" lon="1.70427">
        <ele>416</ele>
        <time>2012-09-22T05:27:33Z</time>
      </trkpt>
      <trkpt lat="44.03705" lon="1.70466">
        <ele>412</ele>
        <time>2012-09-22T05:27:33Z</time>
      </trkpt>
      <trkpt lat="44.03754" lon="1.70541">
        <ele>414</ele>
        <time>2012-09-22T05:27:33Z</time>
      </trkpt>
      <trkpt lat="44.03754" lon="1.70503">
        <ele>412</ele>
        <time>2012-09-22T05:27:33Z</time>
      </trkpt>
      <trkpt lat="44.03741" lon="1.70421">
        <ele>406</ele>
        <time>2012-09-22T05:27:33Z</time>
      </trkpt>
      <trkpt lat="44.03697" lon="1.70304">
        <ele>403</ele>
        <time>2012-09-22T05:27:33Z</time>
      </trkpt>
      <trkpt lat="44.0366" lon="1.70189">
        <ele>401</ele>
        <time>2012-09-22T05:27:33Z</time>
      </trkpt>
      <trkpt lat="44.03644" lon="1.70077">
        <ele>400</ele>
        <time>2012-09-22T05:27:33Z</time>
      </trkpt>
      <trkpt lat="44.0361" lon="1.69967">
        <ele>397</ele>
        <time>2012-09-22T05:27:33Z</time>
      </trkpt>
      <trkpt lat="44.03604" lon="1.69885">
        <ele>393</ele>
        <time>2012-09-22T05:27:33Z</time>
      </trkpt>
      <trkpt lat="44.03584" lon="1.6979">
        <ele>388</ele>
        <time>2012-09-22T05:27:33Z</time>
      </trkpt>
      <trkpt lat="44.03558" lon="1.69698">
        <ele>384</ele>
        <time>2012-09-22T05:27:33Z</time>
      </trkpt>
      <trkpt lat="44.03546" lon="1.69645">
        <ele>382</ele>
        <time>2012-09-22T05:27:33Z</time>
      </trkpt>
      <trkpt lat="44.03543" lon="1.69575">
        <ele>380</ele>
        <time>2012-09-22T05:27:33Z</time>
      </trkpt>
      <trkpt lat="44.03575" lon="1.69469">
        <ele>374</ele>
        <time>2012-09-22T05:27:33Z</time>
      </trkpt>
      <trkpt lat="44.03629" lon="1.69356">
        <ele>366</ele>
        <time>2012-09-22T05:27:33Z</time>
      </trkpt>
      <trkpt lat="44.03674" lon="1.69297">
        <ele>358</ele>
        <time>2012-09-22T05:27:33Z</time>
      </trkpt>
      <trkpt lat="44.03691" lon="1.69262">
        <ele>355</ele>
        <time>2012-09-22T05:27:33Z</time>
      </trkpt>
      <trkpt lat="44.03715" lon="1.69234">
        <ele>350</ele>
        <time>2012-09-22T05:27:33Z</time>
      </trkpt>
      <trkpt lat="44.03698" lon="1.69218">
        <ele>352</ele>
        <time>2012-09-22T05:27:33Z</time>
      </trkpt>
      <trkpt lat="44.03623" lon="1.6921">
        <ele>357</ele>
        <time>2012-09-22T05:27:33Z</time>
      </trkpt>
      <trkpt lat="44.03534" lon="1.69206">
        <ele>363</ele>
        <time>2012-09-22T05:27:33Z</time>
      </trkpt>
      <trkpt lat="44.03497" lon="1.69221">
        <ele>365</ele>
        <time>2012-09-22T05:27:33Z</time>
      </trkpt>
      <trkpt lat="44.0347" lon="1.69238">
        <ele>366</ele>
        <time>2012-09-22T05:27:33Z</time>
      </trkpt>
      <trkpt lat="44.03415" lon="1.69222">
        <ele>365</ele>
        <time>2012-09-22T05:27:33Z</time>
      </trkpt>
      <trkpt lat="44.03371" lon="1.692">
        <ele>363</ele>
        <time>2012-09-22T05:27:33Z</time>
      </trkpt>
      <trkpt lat="44.03345" lon="1.69196">
        <ele>363</ele>
        <time>2012-09-22T05:27:33Z</time>
      </trkpt>
      <trkpt lat="44.03351" lon="1.69085">
        <ele>357</ele>
        <time>2012-09-22T05:27:33Z</time>
      </trkpt>
      <trkpt lat="44.03374" lon="1.68948">
        <ele>351</ele>
        <time>2012-09-22T05:27:33Z</time>
      </trkpt>
      <trkpt lat="44.03427" lon="1.68779">
        <ele>339</ele>
        <time>2012-09-22T05:27:33Z</time>
      </trkpt>
      <trkpt lat="44.03473" lon="1.68652">
        <ele>324</ele>
        <time>2012-09-22T05:27:33Z</time>
      </trkpt>
      <trkpt lat="44.03517" lon="1.68552">
        <ele>321</ele>
        <time>2012-09-22T05:27:33Z</time>
      </trkpt>
      <trkpt lat="44.0355" lon="1.68488">
        <ele>320</ele>
        <time>2012-09-22T05:27:33Z</time>
      </trkpt>
      <trkpt lat="44.03616" lon="1.6843">
        <ele>312</ele>
        <time>2012-09-22T05:27:33Z</time>
      </trkpt>
      <trkpt lat="44.03699" lon="1.68393">
        <ele>298</ele>
        <time>2012-09-22T05:27:33Z</time>
      </trkpt>
      <trkpt lat="44.03777" lon="1.68331">
        <ele>283</ele>
        <time>2012-09-22T05:27:33Z</time>
      </trkpt>
      <trkpt lat="44.03804" lon="1.68306">
        <ele>276</ele>
        <time>2012-09-22T05:27:33Z</time>
      </trkpt>
      <trkpt lat="44.03847" lon="1.68268">
        <ele>265</ele>
        <time>2012-09-22T05:27:33Z</time>
      </trkpt>
      <trkpt lat="44.03873" lon="1.68238">
        <ele>257</ele>
        <time>2012-09-22T05:27:33Z</time>
      </trkpt>
      <trkpt lat="44.03922" lon="1.68185">
        <ele>238</ele>
        <time>2012-09-22T05:27:33Z</time>
      </trkpt>
      <trkpt lat="44.03926" lon="1.68153">
        <ele>234</ele>
        <time>2012-09-22T05:27:33Z</time>
      </trkpt>
      <trkpt lat="44.03928" lon="1.6811">
        <ele>227</ele>
        <time>2012-09-22T05:27:33Z</time>
      </trkpt>
      <trkpt lat="44.03927" lon="1.68077">
        <ele>219</ele>
        <time>2012-09-22T05:27:33Z</time>
      </trkpt>
      <trkpt lat="44.03922" lon="1.68043">
        <ele>210</ele>
        <time>2012-09-22T05:27:33Z</time>
      </trkpt>
      <trkpt lat="44.03922" lon="1.68021">
        <ele>203</ele>
        <time>2012-09-22T05:27:33Z</time>
      </trkpt>
      <trkpt lat="44.0393" lon="1.68011">
        <ele>198</ele>
        <time>2012-09-22T05:27:33Z</time>
      </trkpt>
      <trkpt lat="44.03941" lon="1.68013">
        <ele>197</ele>
        <time>2012-09-22T05:27:33Z</time>
      </trkpt>
      <trkpt lat="44.03954" lon="1.67994">
        <ele>191</ele>
        <time>2012-09-22T05:27:33Z</time>
      </trkpt>
      <trkpt lat="44.03951" lon="1.67954">
        <ele>190</ele>
        <time>2012-09-22T05:27:33Z</time>
      </trkpt>
      <trkpt lat="44.03946" lon="1.67935">
        <ele>193</ele>
        <time>2012-09-22T05:27:33Z</time>
      </trkpt>
      <trkpt lat="44.03933" lon="1.67907">
        <ele>193</ele>
        <time>2012-09-22T05:27:33Z</time>
      </trkpt>
      <trkpt lat="44.03873" lon="1.67864">
        <ele>172</ele>
        <time>2012-09-22T05:27:33Z</time>
      </trkpt>
      <trkpt lat="44.03847" lon="1.67821">
        <ele>165</ele>
        <time>2012-09-22T05:27:33Z</time>
      </trkpt>
      <trkpt lat="44.03834" lon="1.67793">
        <ele>161</ele>
        <time>2012-09-22T05:27:33Z</time>
      </trkpt>
      <trkpt lat="44.03815" lon="1.67757">
        <ele>157</ele>
        <time>2012-09-22T05:27:33Z</time>
      </trkpt>
      <trkpt lat="44.03781" lon="1.67652">
        <ele>138</ele>
        <time>2012-09-22T05:27:33Z</time>
      </trkpt>
      <trkpt lat="44.03777" lon="1.67621">
        <ele>133</ele>
        <time>2012-09-22T05:27:33Z</time>
      </trkpt>
      <trkpt lat="44.03782" lon="1.67568">
        <ele>126</ele>
        <time>2012-09-22T05:27:33Z</time>
      </trkpt>
      <trkpt lat="44.03782" lon="1.67541">
        <ele>123</ele>
        <time>2012-09-22T05:27:33Z</time>
      </trkpt>
      <trkpt lat="44.03789" lon="1.67501">
        <ele>123</ele>
        <time>2012-09-22T05:27:33Z</time>
      </trkpt>
      <trkpt lat="44.03826" lon="1.67502">
        <ele>124</ele>
        <time>2012-09-22T05:27:33Z</time>
      </trkpt>
      <trkpt lat="44.0386" lon="1.67472">
        <ele>124</ele>
        <time>2012-09-22T05:27:33Z</time>
      </trkpt>
      <trkpt lat="44.03914" lon="1.67417">
        <ele>124</ele>
        <time>2012-09-22T05:27:33Z</time>
      </trkpt>
      <trkpt lat="44.03997" lon="1.67324">
        <ele>122</ele>
        <time>2012-09-22T05:27:33Z</time>
      </trkpt>
      <trkpt lat="44.04041" lon="1.67284">
        <ele>119</ele>
        <time>2012-09-22T05:27:33Z</time>
      </trkpt>
      <trkpt lat="44.04101" lon="1.67283">
        <ele>118</ele>
        <time>2012-09-22T05:27:33Z</time>
      </trkpt>
      <trkpt lat="44.0415" lon="1.67263">
        <ele>120</ele>
        <time>2012-09-22T05:27:33Z</time>
      </trkpt>
      <trkpt lat="44.04191" lon="1.67228">
        <ele>122</ele>
        <time>2012-09-22T05:27:33Z</time>
      </trkpt>
      <trkpt lat="44.04228" lon="1.6719">
        <ele>122</ele>
        <time>2012-09-22T05:27:33Z</time>
      </trkpt>
      <trkpt lat="44.04269" lon="1.67154">
        <ele>117</ele>
        <time>2012-09-22T05:27:33Z</time>
      </trkpt>
      <trkpt lat="44.04307" lon="1.67127">
        <ele>116</ele>
        <time>2012-09-22T05:27:33Z</time>
      </trkpt>
      <trkpt lat="44.04433" lon="1.67069">
        <ele>115</ele>
        <time>2012-09-22T05:27:33Z</time>
      </trkpt>
      <trkpt lat="44.04464" lon="1.6706">
        <ele>114</ele>
        <time>2012-09-22T05:27:33Z</time>
      </trkpt>
      <trkpt lat="44.04492" lon="1.67019">
        <ele>112</ele>
        <time>2012-09-22T05:27:33Z</time>
      </trkpt>
      <trkpt lat="44.04502" lon="1.66995">
        <ele>111</ele>
        <time>2012-09-22T05:27:33Z</time>
      </trkpt>
      <trkpt lat="44.04532" lon="1.66987">
        <ele>111</ele>
        <time>2012-09-22T05:27:33Z</time>
      </trkpt>
      <trkpt lat="44.04582" lon="1.67057">
        <ele>111</ele>
        <time>2012-09-22T05:27:33Z</time>
      </trkpt>
      <trkpt lat="44.04617" lon="1.67112">
        <ele>110</ele>
        <time>2012-09-22T05:27:33Z</time>
      </trkpt>
      <trkpt lat="44.04669" lon="1.67202">
        <ele>111</ele>
        <time>2012-09-22T05:27:33Z</time>
      </trkpt>
      <trkpt lat="44.04744" lon="1.67316">
        <ele>115</ele>
        <time>2012-09-22T05:27:33Z</time>
      </trkpt>
      <trkpt lat="44.04778" lon="1.67357">
        <ele>116</ele>
        <time>2012-09-22T05:27:33Z</time>
      </trkpt>
      <trkpt lat="44.04822" lon="1.67384">
        <ele>115</ele>
        <time>2012-09-22T05:27:33Z</time>
      </trkpt>
      <trkpt lat="44.04857" lon="1.67391">
        <ele>114</ele>
        <time>2012-09-22T05:27:33Z</time>
      </trkpt>
      <trkpt lat="44.04923" lon="1.67369">
        <ele>112</ele>
        <time>2012-09-22T05:27:33Z</time>
      </trkpt>
      <trkpt lat="44.0495" lon="1.67344">
        <ele>112</ele>
        <time>2012-09-22T05:27:33Z</time>
      </trkpt>
      <trkpt lat="44.04989" lon="1.67281">
        <ele>113</ele>
        <time>2012-09-22T05:27:33Z</time>
      </trkpt>
      <trkpt lat="44.05017" lon="1.67242">
        <ele>113</ele>
        <time>2012-09-22T05:27:33Z</time>
      </trkpt>
      <trkpt lat="44.05042" lon="1.67191">
        <ele>112</ele>
        <time>2012-09-22T05:27:33Z</time>
      </trkpt>
      <trkpt lat="44.05066" lon="1.67169">
        <ele>110</ele>
        <time>2012-09-22T05:27:33Z</time>
      </trkpt>
      <trkpt lat="44.05076" lon="1.67166">
        <ele>108</ele>
        <time>2012-09-22T05:27:33Z</time>
      </trkpt>
      <trkpt lat="44.05102" lon="1.67214">
        <ele>105</ele>
        <time>2012-09-22T05:27:33Z</time>
      </trkpt>
      <trkpt lat="44.05125" lon="1.67253">
        <ele>109</ele>
        <time>2012-09-22T05:27:33Z</time>
      </trkpt>
      <trkpt lat="44.0515" lon="1.6726">
        <ele>110</ele>
        <time>2012-09-22T05:27:33Z</time>
      </trkpt>
      <trkpt lat="44.05173" lon="1.6726">
        <ele>110</ele>
        <time>2012-09-22T05:27:33Z</time>
      </trkpt>
      <trkpt lat="44.05189" lon="1.67255">
        <ele>109</ele>
        <time>2012-09-22T05:27:33Z</time>
      </trkpt>
      <trkpt lat="44.0518" lon="1.67201">
        <ele>102</ele>
        <time>2012-09-22T05:27:33Z</time>
      </trkpt>
      <trkpt lat="44.05178" lon="1.6717">
        <ele>100</ele>
        <time>2012-09-22T05:27:33Z</time>
      </trkpt>
      <trkpt lat="44.05237" lon="1.67149">
        <ele>100</ele>
        <time>2012-09-22T05:27:33Z</time>
      </trkpt>
      <trkpt lat="44.05279" lon="1.67142">
        <ele>101</ele>
        <time>2012-09-22T05:27:33Z</time>
      </trkpt>
      <trkpt lat="44.05311" lon="1.67123">
        <ele>101</ele>
        <time>2012-09-22T05:27:33Z</time>
      </trkpt>
      <trkpt lat="44.05342" lon="1.6709">
        <ele>100</ele>
        <time>2012-09-22T05:27:33Z</time>
      </trkpt>
      <trkpt lat="44.05363" lon="1.67074">
        <ele>101</ele>
        <time>2012-09-22T05:27:33Z</time>
      </trkpt>
      <trkpt lat="44.05376" lon="1.67049">
        <ele>101</ele>
        <time>2012-09-22T05:27:33Z</time>
      </trkpt>
      <trkpt lat="44.0539" lon="1.67038">
        <ele>100</ele>
        <time>2012-09-22T05:27:33Z</time>
      </trkpt>
      <trkpt lat="44.05465" lon="1.67029">
        <ele>100</ele>
        <time>2012-09-22T05:27:33Z</time>
      </trkpt>
      <trkpt lat="44.05494" lon="1.67021">
        <ele>100</ele>
        <time>2012-09-22T05:27:33Z</time>
      </trkpt>
      <trkpt lat="44.05519" lon="1.67017">
        <ele>100</ele>
        <time>2012-09-22T05:27:33Z</time>
      </trkpt>
      <trkpt lat="44.05533" lon="1.67019">
        <ele>100</ele>
        <time>2012-09-22T05:27:33Z</time>
      </trkpt>
      <trkpt lat="44.05548" lon="1.67023">
        <ele>100</ele>
        <time>2012-09-22T05:27:33Z</time>
      </trkpt>
      <trkpt lat="44.05572" lon="1.67053">
        <ele>103</ele>
        <time>2012-09-22T05:27:33Z</time>
      </trkpt>
      <trkpt lat="44.05599" lon="1.67054">
        <ele>101</ele>
        <time>2012-09-22T05:27:33Z</time>
      </trkpt>
    </trkseg>
  </trk>
</gpx>